sat.trackr.live / text

‹ back to catalog

BLACKJACK ACES-1

NORAD 56956 · 2023-084AA

PAYLOAD ACTIVE UNKNOWN

§ Identity

Operator
Country
US
Launch date
2023-06-12
Launch site
AFWTR
Launch vehicle
Mass (kg)
RCS (m²)

External: N2YO · Heavens-Above · Gunter

§ Orbital elements

Epoch: 2026-05-24T23:13:36.021792Z

Period
94.85 min
Inclination
97.6164°
Eccentricity
0.0001481
Mean motion
15.18253865 rev/d
Perigee alt
510.1 km
Apogee alt
512.1 km
Semi-major
6,889.3 km
B*
2.9352e-4
RAAN
279.8509°
Arg perigee
95.5180°
Mean anomaly
264.6222°
Rev number
11,337

§ Raw data

BLACKJACK ACES-11 56956U 23084AA  26144.96777803  .00005943  00000+0  29352-3 0  99962 56956  97.6164 279.8509 0001481  95.5180 264.6222 15.18253865113371

JSON: /api/v1/satellites/56956 · /tle

For live sub-satellite position, see the globe view (requires WebGL).

§ Visibility from observer

Set your observer location to see the next 7 days of passes ≥ 10°. The values pass through the URL so the page stays shareable.

No JS? Fill the form by hand. The geolocation button needs JavaScript.

§ Radio — SatNOGS DB

ModeDescriptionDownlinkUplink
FM S-band telemetry 2.265 GHz

1 transmitter · refreshed weekly from db.satnogs.org